Dewpoint
21 18 18 19 17 17 18 18 20 15 14 16 16 17 17 18 21 24 29 35 34 32 31 30 30 30 30 38 47 49 49 48 49 51 49 49 50 49 48 49 48 49 47 47 49 49 50 52 52 52 52 53 53 53 53 54 54 52 51 53 52 53 54 53 52 51 49 49 49 50 51 51 52 52 53 55 56 56 55 58 58 59 60 60 61 60
18 19 22 20 19 20 20 22 22 19 18 16 16 16 16 19 21 25 30 33 36 32 32 31 31 32 33 35 44 47 47 47 47 49 51 49 49 50 50 49 48 49 46 47 51 51 53 52 53 53 51 53 53 52 53 54 53 53 53 53 52 52 53 53 54 51 51 52 50 51 49 48 48 49 49 51 53 56 55 57 57 58 58 59 59 60
21 21 21 20 21 20 21 21 19 18 16 16 16 17 17 21 21 26 27 29 35 33 33 32 32 33 35 34 42 45 45 47 48 49 51 51 49 49 49 48 48 49 48 50 50 52 51 53 52 51 52 52 53 53 53 54 53 53 53 52 52 53 53 53 53 52 52 53 54 53 51 49 48 51 53 53 53 55 56 57 57 56 58 57 57 58
23 20 20 21 21 20 19 19 18 17 15 15 16 19 20 21 19 22 22 28 30 33 33 32 30 33 36 39 43 44 43 46 50 49 52 50 50 49 49 50 50 48 49 50 51 51 51 52 52 52 52 53 52 52 52 53 54 52 53 53 52 52 53 53 54 54 54 55 55 54 52 52 52 51 52 54 54 54 55 55 55 56 57 56 57 57
19 20 21 21 19 19 17 18 18 19 19 17 16 16 17 18 20 19 23 25 29 32 34 32 33 32 33 36 39 43 45 46 49 49 49 50 50 51 51 51 51 50 51 50 51 51 51 51 51 51 52 52 53 52 52 53 53 51 53 53 51 52 53 53 54 54 54 53 52 52 52 50 51 50 50 50 50 52 53 54 55 55 55 55 56 57
19 20 21 20 18 17 18 18 18 16 19 17 17 16 16 16 17 20 23 23 25 30 30 31 27 30 32 31 34 40 47 46 46 47 48 48 49 49 50 51 51 50 51 51 51 51 51 52 52 51 52 53 52 52 53 53 54 53 53 53 53 52 53 53 53 54 54 52 51 51 48 48 48 48 48 48 50 51 52 52 55 55 54 53 54 55
20 21 20 19 18 18 17 18 19 19 19 21 20 18 17 16 17 19 20 19 21 21 33 29 23 23 29 28 34 39 44 45 47 47 46 47 47 47 48 49 50 49 50 51 51 51 51 52 52 52 52 52 51 52 52 54 54 53 54 54 52 52 52 53 53 54 54 52 50 52 51 49 49 48 49 50 51 51 51 53 52 53 54 53 53 56
23 21 20 21 20 18 20 20 20 19 17 19 19 18 18 17 16 17 17 17 19 20 30 29 24 22 20 40 37 40 42 43 46 47 46 45 46 47 47 47 49 50 51 50 51 51 52 52 52 52 52 52 51 52 52 54 54 54 54 54 53 53 51 53 54 53 53 52 51 52 51 49 49 49 49 50 51 52 52 52 53 52 52 53 53 54
24 21 21 21 21 18 20 21 22 20 18 18 20 20 19 18 18 16 14 16 19 20 18 25 28 23 20 30 36 39 35 38 41 44 46 47 47 48 48 47 47 49 50 50 50 51 52 52 52 52 51 52 52 52 53 52 54 55 54 54 53 52 53 52 53 53 52 52 51 51 50 48 48 49 49 49 50 51 52 52 52 53 52 53 53 54
23 26 23 23 21 21 21 22 23 23 19 22 22 21 21 20 18 17 16 17 22 22 18 26 26 21 18 26 28 37 33 34 38 41 44 47 48 48 48 49 49 49 50 49 51 51 52 53 53 53 51 52 53 53 54 53 53 54 54 54 53 52 52 52 53 53 52 52 51 50 51 49 48 49 50 50 50 51 53 51 53 53 52 52 54 55
24 33 32 24 24 23 22 22 21 23 21 22 21 17 18 18 19 22 22 19 21 17 22 24 29 26 18 24 29 27 42 40 39 41 42 44 46 45 48 47 48 48 48 49 50 50 52 53 54 54 52 53 54 55 54 53 51 53 53 54 53 53 51 52 52 52 52 51 51 50 51 49 48 49 50 50 50 50 51 51 52 53 52 52 53 54
24 26 25 25 28 25 23 20 21 23 22 21 21 19 16 23 23 24 23 24 18 15 25 25 22 33 19 26 26 37 38 39 42 43 43 43 41 42 44 42 44 46 48 49 49 47 51 53 54 54 53 54 53 54 54 53 52 52 52 53 53 52 52 52 52 52 51 50 50 50 51 49 49 49 49 50 51 50 51 52 52 52 52 53 52 54
24 24 23 24 29 27 25 23 20 21 21 21 19 20 20 13 23 14 20 16 15 15 22 20 25 23 23 30 28 33 35 37 41 42 44 42 38 42 39 43 45 47 46 46 48 49 50 52 54 54 54 53 53 54 55 53 54 53 52 53 53 52 51 52 52 51 51 51 50 50 51 49 49 49 49 49 50 50 52 52 53 54 53 53 52 53
22 22 22 22 27 29 25 21 21 22 19 19 20 20 22 16 14 14 11 15 14 22 19 20 22 17 21 29 32 35 40 39 40 42 42 40 42 43 41 41 41 46 48 46 47 48 50 51 53 53 53 52 53 54 55 54 55 54 53 54 53 52 51 51 51 51 50 50 51 51 51 49 48 50 50 50 50 50 51 52 53 54 54 54 53 53
21 22 24 24 26 28 26 25 24 23 24 21 20 20 21 21 23 16 17 12 14 16 19 22 17 23 19 40 31 37 37 38 37 37 41 43 43 44 41 38 37 38 42 41 44 48 50 52 53 54 53 53 53 55 55 54 55 54 54 53 53 52 51 51 51 50 50 49 50 50 50 48 49 49 49 49 50 50 51 53 54 54 54 54 54 53
18 24 24 27 28 28 26 28 28 30 25 24 22 22 24 21 23 17 24 19 21 17 16 23 18 20 23 31 31 36 34 36 36 37 41 39 40 42 40 39 36 37 37 40 44 48 51 54 54 54 54 55 55 56 56 55 55 55 54 53 53 52 51 51 50 50 50 50 50 51 51 50 49 49 50 50 50 50 52 53 53 54 56 56 55 56
21 24 25 26 29 28 28 29 29 28 25 25 24 26 24 22 22 23 27 31 32 22 15 19 21 28 27 28 32 34 33 34 34 35 35 35 35 41 37 34 35 36 36 40 39 42 51 53 55 55 55 56 56 56 56 56 55 55 54 53 53 52 51 51 50 50 50 51 51 50 50 50 49 49 49 49 51 51 53 54 55 55 55 56 57 56
28 25 26 27 31 28 30 30 31 30 29 30 26 24 24 23 23 27 19 21 18 14 18 21 18 17 18 23 26 32 34 33 32 33 33 37 36 36 36 38 37 38 39 42 45 46 49 52 54 54 55 55 56 56 56 56 56 56 55 54 53 51 51 51 50 50 50 50 50 50 51 50 49 48 47 50 50 52 53 54 55 55 55 56 57 55
32 24 26 25 25 28 31 30 34 30 30 26 26 27 27 24 22 30 23 19 17 18 15 16 19 19 22 26 26 29 31 35 34 34 34 33 35 36 36 39 41 44 46 47 48 46 49 52 54 55 56 55 56 57 56 54 56 56 56 55 53 51 51 51 51 50 49 50 50 50 50 50 49 48 48 49 51 53 53 53 55 55 57 57 58 55
31 24 26 25 25 28 32 31 23 30 31 31 31 29 32 31 27 22 26 22 23 17 19 15 18 15 26 28 28 27 31 33 32 32 33 33 32 34 34 35 37 43 47 44 44 44 46 50 53 53 56 55 55 55 55 56 55 56 56 55 53 51 51 51 50 50 49 49 49 50 50 50 48 47 47 49 51 52 54 56 57 56 57 59 56 54
26 33 18 23 22 26 27 29 31 31 30 28 28 27 31 33 31 26 30 24 22 21 18 18 17 22 31 28 29 30 33 34 33 34 34 33 34 35 38 42 43 44 48 48 46 45 49 53 55 55 56 54 53 53 55 55 55 55 54 54 52 51 51 51 51 48 48 49 49 49 50 50 50 49 47 50 51 53 55 57 57 56 57 55 54 53
27 27 22 23 28 26 32 35 35 38 37 32 29 29 28 28 27 25 20 27 30 25 23 21 20 27 33 29 30 32 35 32 31 33 35 34 32 37 38 44 45 44 48 51 52 51 50 53 55 56 55 54 53 54 54 54 55 54 53 50 51 50 49 50 49 47 48 48 49 49 49 51 50 48 48 50 52 54 57 56 55 56 55 54 52 51
38 31 28 21 28 32 36 34 37 38 41 36 33 32 32 33 32 28 21 23 29 28 28 27 23 24 32 33 33 35 35 33 35 35 36 35 36 38 38 41 45 49 49 51 52 51 52 54 54 54 55 54 54 53 54 54 53 52 53 50 48 49 50 49 48 46 47 47 48 48 49 50 49 49 50 50 51 53 55 56 55 54 53 51 51 50
40 32 26 25 29 32 34 36 41 38 39 40 38 36 36 32 35 32 30 32 27 29 25 17 20 24 35 36 37 38 37 36 37 38 37 36 35 37 38 42 44 47 52 52 51 52 52 53 55 54 53 53 52 54 55 54 52 52 52 50 48 49 50 49 47 46 46 47 48 48 49 50 49 50 50 50 50 53 55 56 54 52 51 51 51 50
32 31 28 21 24 27 33 35 36 39 39 33 31 37 38 37 39 38 37 34 27 28 29 24 19 19 36 37 35 35 35 36 36 34 37 36 38 39 40 42 45 48 50 50 50 51 51 51 50 49 48 48 48 49 54 53 52 51 51 50 48 49 49 47 46 46 46 47 48 48 49 50 49 50 50 49 50 52 55 54 52 52 50 51 49 49
31 29 30 18 15 16 19 20 20 27 29 32 37 40 40 39 36 33 28 24 23 30 32 26 21 27 32 34 35 36 36 36 36 35 36 36 40 40 42 44 45 45 45 47 48 50 51 49 48 48 50 47 47 47 50 53 52 50 50 50 50 49 48 47 46 46 46 46 47 47 48 49 49 49 49 48 49 51 54 53 53 51 51 49 48 48
33 34 33 30 26 24 28 32 35 35 34 31 35 37 40 40 40 40 33 28 23 31 27 29 30 31 33 33 34 36 37 36 36 37 35 34 38 40 41 42 43 44 45 45 46 47 49 50 51 49 50 50 50 49 48 50 50 49 49 50 50 48 47 46 47 46 46 47 47 46 48 48 48 49 49 48 50 51 52 53 52 51 49 49 48 49
33 30 32 37 34 33 33 35 36 37 35 35 35 35 37 39 40 36 30 28 36 30 23 36 37 35 32 33 34 35 37 37 37 37 37 37 39 39 40 41 45 40 41 43 44 44 44 46 49 52 52 52 50 47 48 47 48 48 48 48 48 46 48 48 48 45 45 45 46 46 47 47 48 48 47 48 50 50 53 52 51 50 50 49 49 50
32 25 35 37 34 34 37 37 39 39 38 37 37 37 36 39 38 34 33 37 36 30 24 32 37 37 36 34 35 36 38 39 38 39 41 42 40 40 39 38 37 38 39 38 41 42 45 45 48 52 51 51 52 51 51 48 46 48 47 46 46 45 46 47 46 45 44 45 46 46 46 47 47 48 47 48 50 52 54 51 50 50 50 49 50 51
35 29 36 35 35 34 37 36 38 38 39 40 40 39 39 40 37 37 37 39 40 36 37 37 39 39 37 36 36 38 40 40 40 41 41 40 40 38 37 38 37 38 39 39 40 42 44 47 49 51 53 53 52 51 50 50 47 46 48 46 44 45 46 46 47 44 44 43 44 45 43 43 45 45 46 48 49 50 51 50 50 50 50 48 49 51
40 34 41 37 30 35 36 38 40 38 37 35 34 36 39 41 39 39 37 38 38 35 40 38 39 37 36 38 38 39 41 41 41 41 40 41 41 41 39 38 39 39 39 40 41 42 43 45 47 48 49 51 51 51 50 50 49 49 47 46 45 44 44 43 45 45 43 42 43 43 43 42 43 44 44 46 48 50 50 50 51 50 49 49 49 51
39 33 36 36 25 30 35 36 36 37 38 37 37 35 35 33 32 33 33 36 33 32 37 38 34 33 34 38 38 39 39 38 39 39 40 40 40 40 40 41 40 41 41 40 40 41 40 41 45 47 49 50 51 51 50 49 49 49 47 45 43 42 44 45 44 43 43 43 43 42 41 41 41 42 43 45 45 47 48 49 50 48 47 48 49 49
36 34 31 29 24 23 34 31 33 33 32 31 29 32 42 39 36 40 41 42 38 40 32 31 28 34 37 39 38 38 38 38 38 39 41 40 41 40 40 41 42 42 42 43 42 41 41 42 45 48 50 50 49 48 49 49 48 47 46 45 45 43 45 45 45 43 42 42 41 41 43 41 40 41 43 44 44 46 48 47 47 46 46 47 48 49
36 34 30 33 24 22 33 33 32 31 21 19 32 36 37 37 40 34 33 39 42 42 33 34 35 37 37 36 37 38 38 39 41 42 44 43 42 42 42 43 42 42 43 43 42 42 44 44 45 47 49 50 50 49 50 49 48 48 47 44 43 44 44 42 42 43 41 41 39 41 41 40 40 41 42 44 45 46 46 46 46 47 47 46 47 47
37 35 29 35 25 24 29 31 24 21 20 36 38 40 40 40 40 39 39 40 40 43 42 38 37 36 35 36 37 40 41 42 42 42 42 44 46 45 45 44 43 42 43 43 44 44 46 47 48 49 50 50 49 51 50 48 47 48 46 45 43 43 43 42 41 42 42 41 39 41 41 40 40 41 42 43 44 46 45 45 46 46 46 46 45 46
35 31 31 29 30 28 27 25 21 18 31 35 44 45 43 38 39 43 41 39 38 38 41 39 37 35 35 36 38 40 41 41 42 41 41 43 45 46 45 44 44 45 45 46 45 47 48 48 49 49 50 50 51 49 47 47 48 46 45 44 43 43 42 41 40 40 41 40 39 39 40 41 41 42 42 43 44 45 45 45 45 45 45 46 45 46
38 36 32 28 34 25 24 21 20 29 33 36 38 39 38 36 40 36 26 26 36 38 37 36 35 34 35 36 39 39 41 40 38 37 41 42 46 47 47 46 46 46 47 48 49 49 52 52 52 53 52 52 52 51 49 49 47 46 45 43 44 41 39 41 40 39 41 41 40 39 40 40 40 42 43 43 43 43 43 44 44 44 45 45 46 46
36 34 33 30 30 29 23 21 21 21 19 26 36 40 44 42 41 40 37 31 37 37 37 35 34 34 35 36 38 40 42 37 34 35 40 41 43 46 44 45 45 46 47 48 49 49 51 52 52 53 53 52 52 51 50 49 46 45 44 42 42 40 39 39 39 39 40 40 39 39 39 40 39 40 42 42 42 42 43 44 45 46 46 45 45 45
36 37 37 31 27 28 26 23 23 22 22 30 36 39 43 42 41 42 35 27 34 36 36 34 34 35 35 35 36 40 36 30 27 33 41 43 43 45 44 43 42 44 46 48 50 49 51 52 53 52 52 52 51 51 50 49 48 45 43 42 42 39 38 39 38 39 40 40 39 39 38 40 40 40 41 41 42 43 43 43 44 44 46 46 45 45
38 34 33 29 29 27 25 23 22 25 23 35 41 40 39 43 43 38 26 23 36 36 35 36 36 36 37 39 38 36 34 30 27 35 43 46 46 45 47 45 45 45 45 47 50 51 53 53 52 50 51 50 49 50 49 48 45 44 43 42 42 40 38 39 40 39 41 40 41 40 39 40 41 42 42 40 41 42 43 43 43 44 45 46 44 43
34 32 30 28 25 26 27 23 24 26 33 39 39 42 41 45 40 27 22 28 36 35 37 38 36 37 38 38 39 31 34 36 40 44 47 46 44 43 44 46 46 48 47 46 49 49 50 50 50 49 49 47 48 49 49 46 45 44 42 43 42 41 39 39 40 40 40 40 40 40 39 40 40 42 42 42 41 41 41 44 45 45 44 44 44 44
32 31 29 32 27 23 25 23 22 22 32 41 41 42 42 40 28 25 37 38 36 38 40 40 39 39 40 40 37 36 36 40 43 45 44 43 43 45 43 43 43 44 49 49 50 50 49 49 50 50 50 50 48 49 47 45 44 43 43 43 43 42 40 39 39 40 40 40 38 40 41 41 41 43 43 41 39 40 40 40 39 41 43 40 42 45
29 27 25 26 27 29 29 24 21 20 37 43 45 41 43 32 25 35 36 40 38 37 40 41 40 39 41 40 41 42 42 42 43 43 43 42 42 42 42 42 44 44 44 47 51 52 48 48 49 49 49 49 50 48 45 46 45 43 43 44 44 42 40 39 40 39 39 39 39 40 41 42 43 43 42 42 42 40 39 38 37 36 38 41 43 44
35 25 21 24 29 18 23 23 22 21 38 45 37 28 39 36 30 38 36 32 40 39 39 38 39 41 42 42 40 39 42 42 42 42 42 41 41 42 42 43 44 44 44 45 49 50 51 50 48 48 49 48 48 47 45 45 44 43 43 45 44 42 42 40 40 38 39 40 40 40 42 42 43 43 43 42 42 39 39 38 35 32 32 37 40 42
36 27 33 23 33 24 19 23 30 37 40 42 38 32 35 41 40 42 40 37 37 38 42 37 37 40 44 43 43 43 41 41 42 41 40 40 41 41 42 43 43 44 45 47 47 49 50 48 49 48 48 49 49 48 44 44 44 44 45 45 43 40 41 40 39 40 39 40 40 41 42 42 42 42 41 41 40 39 37 35 35 34 36 37 40 43
38 40 41 33 24 35 36 37 39 36 39 41 40 39 41 44 47 49 44 39 39 38 41 39 40 42 46 46 42 41 42 42 41 40 40 40 41 42 43 43 42 44 47 49 50 51 50 49 49 49 49 48 50 48 47 45 44 45 45 45 43 41 40 39 40 40 39 40 41 41 42 42 42 41 41 41 38 39 36 34 35 40 41 42 43 43
34 35 33 24 35 27 21 31 32 32 35 39 38 39 40 42 44 46 44 42 41 40 42 44 42 44 46 48 46 42 39 39 40 40 40 40 41 42 42 42 44 45 47 49 51 50 50 51 49 49 49 50 49 49 47 47 45 44 44 44 43 42 40 39 40 40 40 40 40 41 41 41 38 38 40 39 38 37 36 28 35 43 42 43 42 43
31 37 30 29 30 29 25 27 36 37 40 41 37 35 36 37 40 42 44 45 44 45 46 46 49 46 48 46 46 44 41 40 39 40 40 41 41 42 42 42 44 46 47 50 52 52 51 50 50 50 49 49 49 49 48 47 45 44 44 43 43 42 40 41 41 41 40 41 40 39 40 39 39 36 33 36 38 35 34 30 35 41 41 42 41 40
37 33 23 29 26 28 31 30 28 33 37 37 38 39 37 35 36 38 41 46 46 45 45 46 49 46 46 45 44 46 44 42 41 42 43 43 43 42 43 44 46 48 48 49 50 51 50 49 48 49 50 50 49 49 49 49 47 46 46 44 43 43 41 41 41 41 42 41 40 40 39 39 39 37 33 35 39 37 35 32 32 41 44 48 46 43
32 25 30 31 25 22 20 23 30 25 19 22 35 38 39 40 39 40 45 44 43 43 44 44 46 48 46 46 45 45 45 42 42 45 45 44 44 45 46 46 47 48 48 49 50 50 51 52 52 51 50 49 50 49 49 49 48 47 45 44 42 44 43 42 42 42 41 40 40 40 39 39 37 38 35 35 35 38 42 34 34 39 43 45 36 32
27 29 27 26 21 15 20 21 33 33 28 26 31 36 39 41 43 42 39 39 39 41 41 42 40 42 46 46 46 45 44 44 44 45 46 45 44 45 47 49 49 48 48 49 49 47 48 49 51 52 51 50 50 49 48 49 48 47 46 45 44 43 43 42 41 40 39 40 40 38 40 39 38 38 35 35 36 37 34 38 38 32 31 35 35 33